Flag for Belgium Weather past 2 weeks in Liège, Belgium

Now
55 °F

Passing clouds.


Feels Like: 53 °F
Forecast: 41 / 51 °F
Wind: 10 mph from South

Location: Bierset


UV Index: 3 (Moderate)

Visibility: N/A


Pressure: 30.18 "Hg

Humidity: 36%

Dew point: 28 °F

Location of LiègeLocation

Historic Weather in Liège

°F

Liège temperature yesterday

Maximum temperature yesterday: 57 °F (at 3:50 PM)
Minimum temperature yesterday: 34 °F (at 3:50 AM)
Average temperature yesterday: 47 °F

Past Weeks' High & Low Weather Summary

 TemperatureHumidityPressure
High70 °F (Apr 2, 4:20 PM)100% (Apr 9, 6:20 AM)30.42 "Hg (Apr 9, 6:20 AM)
Low34 °F (Apr 15, 6:50 AM)36% (Apr 16, 4:20 PM)29.59 "Hg (Apr 3, 4:20 AM)
Average52 °F69%30.06 "Hg
* Reported Apr 2 11:20 AM — Apr 17 11:20 AM, Liège, Weather by CustomWeather, © 2014

Note: Actual official high and low records may vary slightly from our data, if they occured in-between our weather recording intervals... More about our weather records

Advertising

Historic Weather Conditions — Data for Previous 24 hours

 ConditionsComfort  
Time TempWeatherWind HumidityBarometerVisibility
11:20 AM
Apr 17
55 °FSunny.14 mph38%30.21 "Hg10 mi
10:50 AM54 °FSunny.13 mph38%30.21 "Hg10 mi
10:20 AM52 °FSunny.12 mph44%30.21 "Hg10 mi
9:50 AM50 °FPassing clouds.12 mph47%30.21 "HgN/A
9:20 AM48 °FPassing clouds.8 mph50%30.24 "HgN/A
8:50 AM46 °FSunny.8 mph53%30.24 "Hg10 mi
8:20 AM45 °FSunny.9 mph53%30.24 "Hg10 mi
7:50 AM43 °FPassing clouds.9 mph57%30.24 "HgN/A
7:20 AM43 °FClear.7 mph57%30.24 "Hg10 mi
6:50 AM43 °FClear.7 mph57%30.24 "Hg10 mi
6:20 AM43 °FClear.7 mph57%30.24 "Hg10 mi
5:50 AM43 °FClear.7 mph57%30.24 "Hg10 mi
5:20 AM45 °FClear.6 mph53%30.27 "Hg10 mi
4:50 AM46 °FClear.7 mph50%30.27 "Hg10 mi
4:20 AM45 °FClear.5 mph53%30.27 "Hg10 mi
3:50 AM46 °FClear.6 mph50%30.27 "Hg10 mi
3:20 AM46 °FClear.7 mph50%30.27 "Hg10 mi
2:50 AM48 °FClear.7 mph46%30.30 "Hg10 mi
2:20 AM48 °FClear.7 mph46%30.30 "Hg10 mi
1:50 AM48 °FClear.9 mph46%30.30 "Hg10 mi
1:20 AM50 °FPassing clouds.9 mph47%30.30 "HgN/A
12:50 AM50 °FPassing clouds.8 mph43%30.30 "HgN/A
12:20 AM50 °FPassing clouds.7 mph47%30.30 "HgN/A
11:50 PM
Apr 16
50 °FClear.8 mph47%30.30 "Hg10 mi
11:20 PM50 °FClear.7 mph47%30.30 "Hg10 mi
10:50 PM52 °FClear.6 mph44%30.33 "Hg10 mi
10:20 PM52 °FClear.6 mph41%30.33 "Hg10 mi
9:50 PM54 °FClear.5 mph38%30.30 "Hg10 mi
9:20 PM54 °FPassing clouds.5 mph38%30.30 "HgN/A
8:50 PM54 °FPassing clouds.5 mph38%30.30 "HgN/A
8:20 PM52 °FSunny.6 mph47%30.30 "Hg10 mi
7:50 PM54 °FSunny.8 mph44%30.30 "Hg10 mi
7:20 PM55 °FSunny.12 mph38%30.30 "Hg10 mi
6:50 PM57 °FSunny.10 mph39%30.30 "Hg10 mi
6:20 PM57 °FSunny.12 mph39%30.33 "Hg10 mi
5:50 PM57 °FPassing clouds.9 mph39%30.33 "HgN/A
5:20 PM57 °FPassing clouds.9 mph36%30.33 "HgN/A
4:50 PM57 °FPassing clouds.10 mph39%30.33 "HgN/A
4:20 PM57 °FPassing clouds.8 mph36%30.36 "HgN/A
3:50 PM57 °FPassing clouds.8 mph41%30.36 "HgN/A
3:20 PM55 °FPassing clouds.9 mph44%30.36 "HgN/A
2:50 PM55 °FPassing clouds.6 mph41%30.36 "HgN/A
2:20 PM54 °FPassing clouds.6 mph44%30.39 "HgN/A
1:50 PM54 °FPassing clouds.5 mph41%30.39 "HgN/A
1:20 PM54 °FSunny.1 mph44%30.39 "Hg10 mi
12:50 PM52 °FSunny.1 mph44%30.39 "Hg10 mi
12:20 PM52 °FSunny.2 mph44%30.42 "Hg10 mi
Weather by CustomWeather, © 2014

See weather overview